"Pseudo-MPEC" for MHJ2362

Created 2023 Jan 29 4:22:15 UT using Find_Orb

Click here for an explanation of pseudo-MPECs

 
 Astrometry: 
     MHJ2362*KC2023 01 24FH2v!d@hnf4`q-Xv1bfdpbG8N?/@iUB,C@LAstrometrye5lyud-W16
     MHJ2362 KC2023 01 247v]^J@@)JXWCAQ3QM5]pU/5D!i??P032T]SWW6'iGJ1S7bEQ\.fZW16
     MHJ2362 KC2023 01 24//)_0yswSV*d4tE#uJhNaP/hO`$]^G68Pu#)nT6%^!9Xp-J_\fikW16
     MHJ2362 KC2023 01 24.?+21JIG=SC@6ktMp2(cD(4Q-MgM2[5=G8Oq;PhIMb_?6fiHnSlQW16
     MHJ2362 KC2023 01 24Ax8needxF;mlDaOa0IJu`6?._LUjmS(;rG%pm%f:Kd239swpCGE]W16
     MHJ2362 KC2023 01 248dkQjA]-IRJXP=71c[CvN=sx:uDw3bBd-C+DP.wVXU-Ol#`U8)+gW16
     MHJ2362 KC2023 01 27%e:ckg4Q3W6WaxTr0cY_V\yeO\q]v[QPyw=%1HlB^I]6XUFA4_QKW16
     MHJ2362 KC2023 01 27^=t4p1dQ=nP:1/%Y!!q%^-7:-X(ldS*[-$I#j3U-[_Glo%J'vOe]W16
     MHJ2362 KC2023 01 27fYjyb\co@xWDGZh4iuo)vax@H]RIy\iqx%4HE2%CY_2G)a28WdnwW16
     MHJ2362 KC2023 01 28fRmUF77i.jnCredacted;8mU=kiVW69SK00i%bVWUclicktfeWktW16
     MHJ2362 KC2023 01 28G:=9aLVRhere;gfor/R(_,8Iuq1+(AZnwELB?M\6gD=wP2`dyB#_W16
     MHJ2362 KC2023 01 284MZ,8@h3]0EcS?ji/WgL/9'XWT[ehbNT@=h@TR?q+^aOHsN(4g/lW16
     MHJ2362 KC2023 01 28EjFZUiBU=vO4ohqi_V'G+O@X6Ee)DU)$ert6QJJosmfbRCjS(sM*W16
     MHJ2362 KC2023 01 28QOAQo$OJ-.5Z.0J_4NU-AupN:'!gU+s^L$S*S$lamLJWv/kJyl:IW16
     MHJ2362 KC2023 01 29t2=!3*0sWoy[H*ivPNH+xdwH(PnvShcpDPTTI2IIGL-6,)AZ+u@]858
     MHJ2362 KC2023 01 29_q+BGTTv'J@2XO[Dx*l$k\1N#EYye^\explanation]0y7,Z;'lN858
     MHJ2362 KC2023 01 29VNr.2d3X!x,$Cf#c\y8v]HuN/0D6rF*DTqcAOd?[h=!F8b%P^S4E858

Station data:
(858) Tebbutt Observatory, Edgewood  (N35.093869 W106.220000)  US/New Mexico.
    Observer F. B. Zoltowski. 0.16-m refractor + CCD0.51-m Schmidt-Cassegrain
   + CCD.
(W16) Pleasant Groves Observatory  (N34.711888 W86.231310)  US/Alabama.
   Observer M. Holbrook. 0.36-m reflector + CCD.

Orbital elements:  MHJ2362
   Perihelion 2022 Dec 13.64930 +/- 0.104 TT = 15:34:59 (JD 2459927.14930)
Epoch 2023 Jan 29.0 TT = JDT 2459973.5   Earth MOID: 0.0149   Ma: 0.0448
M  12.38569735 +/- 0.41             (J2000 ecliptic)             AutoNEOCP
n   0.26721704 +/- 0.00834          Peri.  250.22683 +/- 0.22
a   2.38722455 +/- 0.0497           Node   178.29674 +/- 0.22
e   0.6032285 +/- 0.00823           Incl.    1.29831 +/- 0.015
P   3.69                   H 23.67  G  0.15   U  9.5
q 0.94718253 +/- 9.25e-5    Q 3.82726657 +/- 0.0993
From 17 observations 2023 Jan. 24-29; mean residual 0".40
Residuals in arcseconds: 
230124 W16  .02-  .12-    230127 W16  .68-  .61+    230128 W16  .55-  .14-    
230124 W16  .23-  .06+    230127 W16  .33+  .16+    230128 W16  .64+  .20+    
230124 W16  .26+  .17+    230127 W16  .18+  1.2+    230129 858  .16+  .23-    
230124 W16  .12-  .31-    230128 W16  .28-  .45-    230129 858  .17+  .25+    
230124 W16  .26-  .19-    230128 W16  .46-  .29+    230129 858  .21-  .49-    
230124 W16  .47+  .19-    230128 W16  .51+  .67-    

Ephemerides (geocentric):
Date (UTC) HH   RA             Dec           delta  r     elong  mag " sig PA
---- --------  ------------   ------------  ------ ------ -----  --- --------
2023 01 29 04  06 28 20.631   +16 16 48.86  .17065 1.1326 147.5 21.4 .231 137
2023 01 29 05  06 28 37.942   +16 17 23.58  .17093 1.1329 147.5 21.4 .238 135
2023 01 29 06  06 28 55.208   +16 17 58.13  .17120 1.1331 147.6 21.4 .244 133
2023 01 29 07  06 29 12.427   +16 18 32.49  .17148 1.1334 147.6 21.4 .251 131
2023 01 29 08  06 29 29.600   +16 19 06.67  .17176 1.1337 147.6 21.4 .259 129
2023 01 29 09  06 29 46.728   +16 19 40.67  .17204 1.1340 147.7 21.4 .266 127
2023 01 29 10  06 30 03.811   +16 20 14.49  .17232 1.1343 147.7 21.4 .274 125
2023 01 29 11  06 30 20.848   +16 20 48.14  .17259 1.1346 147.7 21.4 .282 124
2023 01 29 12  06 30 37.839   +16 21 21.60  .17287 1.1349 147.7 21.4 .291 122
2023 01 29 13  06 30 54.786   +16 21 54.89  .17315 1.1352 147.8 21.4 .299 121
2023 01 29 14  06 31 11.688   +16 22 28.00  .17343 1.1355 147.8 21.4 .308 119
2023 01 29 15  06 31 28.545   +16 23 00.93  .17371 1.1358 147.8 21.4 .317 118
2023 01 29 16  06 31 45.358   +16 23 33.69  .17399 1.1360 147.9 21.4 .326 117
2023 01 29 17  06 32 02.126   +16 24 06.28  .17427 1.1363 147.9 21.4 .335 116
2023 01 29 18  06 32 18.850   +16 24 38.70  .17456 1.1366 147.9 21.4 .344 115
2023 01 29 19  06 32 35.530   +16 25 10.94  .17484 1.1369 147.9 21.4 .353 114
2023 01 29 20  06 32 52.166   +16 25 43.01  .17512 1.1372 148.0 21.4 .363 113
2023 01 29 21  06 33 08.757   +16 26 14.92  .17540 1.1375 148.0 21.4 .372 112
2023 01 29 22  06 33 25.306   +16 26 46.65  .17568 1.1378 148.0 21.4 .382 111
2023 01 29 23  06 33 41.810   +16 27 18.22  .17597 1.1381 148.0 21.5 .392 110
2023 01 30 00  06 33 58.271   +16 27 49.62  .17625 1.1384 148.1 21.5 .402 109
2023 01 30 01  06 34 14.689   +16 28 20.85  .17653 1.1387 148.1 21.5 .411 109
2023 01 30 02  06 34 31.064   +16 28 51.92  .17682 1.1390 148.1 21.5 .421 108
2023 01 30 03  06 34 47.396   +16 29 22.82  .17710 1.1393 148.1 21.5 .431 107
2023 01 30 04  06 35 03.684   +16 29 53.56  .17739 1.1395 148.2 21.5 .441 107
2023 01 30 05  06 35 19.931   +16 30 24.14  .17767 1.1398 148.2 21.5 .451 106
2023 01 30 06  06 35 36.134   +16 30 54.56  .17796 1.1401 148.2 21.5 .462 105
2023 01 30 07  06 35 52.295   +16 31 24.81  .17824 1.1404 148.2 21.5 .472 105
2023 01 30 08  06 36 08.414   +16 31 54.91  .17853 1.1407 148.3 21.5 .482 104
2023 01 30 09  06 36 24.491   +16 32 24.84  .17881 1.1410 148.3 21.5 .492 104
2023 01 30 10  06 36 40.526   +16 32 54.62  .17910 1.1413 148.3 21.5 .502 103
2023 01 30 11  06 36 56.518   +16 33 24.24  .17939 1.1416 148.3 21.5 .512 103
2023 01 30 12  06 37 12.470   +16 33 53.70  .17967 1.1419 148.3 21.5 .522 102
2023 01 30 13  06 37 28.379   +16 34 23.00  .17996 1.1422 148.4 21.5 .533 102
2023 01 30 14  06 37 44.247   +16 34 52.15  .18025 1.1425 148.4 21.5 .543 102
2023 01 30 15  06 38 00.074   +16 35 21.15  .18054 1.1428 148.4 21.5 .553 101
2023 01 30 16  06 38 15.859   +16 35 49.99  .18083 1.1431 148.4 21.5 .563 101
2023 01 30 17  06 38 31.604   +16 36 18.68  .18111 1.1434 148.5 21.5 .573 100
2023 01 30 18  06 38 47.308   +16 36 47.22  .18140 1.1437 148.5 21.5 .583 100
2023 01 30 19  06 39 02.971   +16 37 15.61  .18169 1.1440 148.5 21.5 .594 100
2023 01 30 20  06 39 18.593   +16 37 43.84  .18198 1.1442 148.5 21.5 .604  99
2023 01 30 21  06 39 34.175   +16 38 11.93  .18227 1.1445 148.5 21.5 .614  99
2023 01 30 22  06 39 49.716   +16 38 39.87  .18256 1.1448 148.6 21.5 .624  99
2023 01 30 23  06 40 05.217   +16 39 07.66  .18285 1.1451 148.6 21.5 .634  98
2023 01 31 00  06 40 20.679   +16 39 35.30  .18315 1.1454 148.6 21.5 .644  98
2023 01 31 01  06 40 36.100   +16 40 02.79  .18344 1.1457 148.6 21.5 .654  98
2023 01 31 02  06 40 51.481   +16 40 30.14  .18373 1.1460 148.6 21.5 .664  98
2023 01 31 03  06 41 06.823   +16 40 57.35  .18402 1.1463 148.7 21.5 .674  97